| time (UTC) | temp C | wind direction | speed KPH | gust KPH | rain 1hr cm | rain 24hr cm | rain mn cm | humidity % | barometer mb |
| 20260901010003 | 20 | 215 | 0.0 | 0.0 | 0.00 | 0.23 | 0.05 | 96 | 1017.7 |
| 20260901004503 | 20 | 215 | 0.0 | 0.0 | 0.00 | 0.28 | 0.05 | 95 | 1017.7 |
| 20260901003002 | 20 | 215 | 0.0 | 0.0 | 0.00 | 0.28 | 0.05 | 95 | 1017.6 |
| 20260901001502 | 20 | 215 | 0.0 | 0.0 | 0.00 | 0.28 | 0.05 | 95 | 1017.4 |
| 20260901000001 | 21 | 215 | 0.0 | 0.0 | 0.00 | 0.28 | 0.05 | 94 | 1017.3 |
| 20260831234502 | 21 | 215 | 0.0 | 0.0 | 0.00 | 0.28 | 0.05 | 93 | 1017.2 |
| 20260831233102 | 21 | 215 | 0.0 | 0.0 | 0.00 | 0.28 | 0.05 | 92 | 1017.2 |
| 20260831231559 | 22 | 215 | 0.0 | 0.0 | 0.00 | 0.28 | 0.05 | 91 | 1017.3 |
| 20260831230056 | 23 | 215 | 0.0 | 0.0 | 0.00 | 0.28 | 0.05 | 88 | 1017.5 |
| 20260831224554 | 24 | 215 | 0.0 | 0.0 | 0.00 | 0.28 | 0.05 | 86 | 1017.8 |
| 20260831223054 | 25 | 215 | 0.0 | 0.0 | 0.00 | 0.28 | 0.05 | 83 | 1017.8 |
| 20260831221614 | 25 | 215 | 0.0 | 0.0 | 0.00 | 0.28 | 0.05 | 83 | 1017.8 |
| 20260831220052 | 25 | 211 | 0.0 | 0.0 | 0.00 | 0.28 | 0.05 | 84 | 1017.8 |
| 20260831214549 | 24 | 211 | 0.0 | 1.6 | 0.00 | 0.28 | 0.05 | 81 | 1018.0 |
| 20260831213049 | 24 | 249 | 0.0 | 1.6 | 0.00 | 0.28 | 0.05 | 82 | 1018.1 |
| 20260831211547 | 24 | 256 | 0.0 | 0.0 | 0.00 | 0.28 | 0.05 | 81 | 1018.4 |
| 20260831210048 | 23 | 256 | 0.0 | 1.6 | 0.00 | 0.28 | 0.05 | 83 | 1018.5 |
| 20260831204545 | 23 | 219 | 0.0 | 1.6 | 0.00 | 0.28 | 0.05 | 91 | 1018.4 |
| 20260831203103 | 22 | 218 | 0.0 | 0.0 | 0.00 | 0.28 | 0.05 | 90 | 1018.5 |
| 20260831201550 | 23 | 218 | 0.0 | 0.0 | 0.00 | 0.28 | 0.05 | 92 | 1018.6 |
| 20260831200124 | 23 | 218 | 0.0 | 0.0 | 0.05 | 0.28 | 0.05 | 91 | 1018.8 |
| 20260831194542 | 23 | 219 | 0.0 | 0.0 | 0.05 | 0.28 | 0.05 | 90 | 1019.0 |
| 20260831193042 | 23 | 217 | 0.0 | 1.6 | 0.05 | 0.28 | 0.05 | 89 | 1019.1 |
| 20260831191544 | 23 | 138 | 0.0 | 1.6 | 0.05 | 0.28 | 0.05 | 84 | 1019.0 |
| 20260831190042 | 24 | 259 | 0.0 | 0.0 | 0.00 | 0.23 | 0.00 | 78 | 1019.4 |
| 20260831184545 | 24 | 259 | 0.0 | 1.6 | 0.00 | 0.23 | 0.00 | 76 | 1019.5 |
| 20260831183039 | 24 | 256 | 0.0 | 1.6 | 0.00 | 0.23 | 0.00 | 79 | 1019.4 |
| 20260831181548 | 25 | 203 | 0.0 | 0.0 | 0.00 | 0.23 | 0.00 | 78 | 1019.4 |
| 20260831180038 | 25 | 202 | 0.0 | 1.6 | 0.00 | 0.23 | 0.00 | 75 | 1019.3 |
| 20260831174548 | 25 | 265 | 0.0 | 0.0 | 0.00 | 0.23 | 0.00 | 75 | 1019.4 |
| 20260831173038 | 25 | 265 | 0.0 | 3.2 | 0.00 | 0.23 | 0.00 | 70 | 1019.6 |
| 20260831171536 | 25 | 241 | 0.0 | 3.2 | 0.00 | 0.23 | 0.00 | 70 | 1019.6 |
| 20260831170040 | 25 | 313 | 0.0 | 1.6 | 0.00 | 0.23 | 0.00 | 68 | 1019.6 |
| 20260831164534 | 25 | 256 | 0.0 | 3.2 | 0.00 | 0.23 | 0.00 | 69 | 1019.6 |
| 20260831163034 | 25 | 267 | 0.0 | 3.2 | 0.00 | 0.23 | 0.00 | 72 | 1019.6 |
| 20260831161531 | 25 | 103 | 1.6 | 4.8 | 0.00 | 0.23 | 0.00 | 72 | 1019.6 |
| 20260831160030 | 25 | 98 | 0.0 | 6.4 | 0.00 | 0.23 | 0.00 | 70 | 1019.7 |
| 20260831154528 | 25 | 115 | 0.0 | 3.2 | 0.00 | 0.23 | 0.00 | 73 | 1019.8 |
| 20260831153024 | 23 | 275 | 0.0 | 3.2 | 0.00 | 0.23 | 0.00 | 81 | 1019.9 |
| 20260831151521 | 23 | 281 | 0.0 | 1.6 | 0.00 | 0.23 | 0.00 | 83 | 1019.9 |
| 20260831150021 | 23 | 214 | 0.0 | 0.0 | 0.00 | 0.23 | 0.00 | 81 | 1020.0 |
| 20260831144518 | 22 | 214 | 0.0 | 0.0 | 0.00 | 0.23 | 0.00 | 82 | 1020.2 |
| 20260831143018 | 22 | 212 | 0.0 | 0.0 | 0.00 | 0.23 | 0.00 | 84 | 1020.1 |
| 20260831141512 | 22 | 258 | 0.0 | 0.0 | 0.00 | 0.23 | 0.00 | 86 | 1020.2 |
| 20260831140026 | 22 | 258 | 0.0 | 1.6 | 0.00 | 0.23 | 0.00 | 92 | 1020.2 |
| 20260831134508 | 21 | 302 | 0.0 | 0.0 | 0.00 | 0.23 | 0.00 | 95 | 1019.9 |
| 20260831133008 | 21 | 302 | 0.0 | 0.0 | 0.00 | 0.23 | 0.00 | 97 | 1019.9 |
| 20260831131506 | 21 | 302 | 0.0 | 0.0 | 0.00 | 0.23 | 0.00 | 97 | 1019.9 |
| 20260831130006 | 20 | 302 | 0.0 | 0.0 | 0.00 | 0.23 | 0.00 | 98 | 1020.0 |
| 20260831124505 | 20 | 303 | 0.0 | 0.0 | 0.00 | 0.23 | 0.00 | 98 | 1020.0 |
| 20260831123004 | 20 | 303 | 0.0 | 0.0 | 0.00 | 0.23 | 0.00 | 98 | 1020.0 |
| 20260831121502 | 20 | 304 | 0.0 | 0.0 | 0.00 | 0.23 | 0.00 | 98 | 1020.0 |
| 20260831120001 | 20 | 303 | 0.0 | 0.0 | 0.00 | 0.23 | 0.00 | 98 | 1019.9 |
| 20260831114500 | 20 | 304 | 0.0 | 0.0 | 0.00 | 0.23 | 0.00 | 98 | 1019.8 |
| 20260831113102 | 19 | 304 | 0.0 | 0.0 | 0.00 | 0.23 | 0.00 | 98 | 1019.8 |
| 20260831111558 | 19 | 303 | 0.0 | 0.0 | 0.00 | 0.23 | 0.00 | 98 | 1019.5 |
| 20260831110056 | 19 | 304 | 0.0 | 0.0 | 0.00 | 0.23 | 0.00 | 98 | 1019.4 |
| 20260831104604 | 19 | 304 | 0.0 | 0.0 | 0.00 | 0.23 | 0.00 | 98 | 1019.3 |
| 20260831103054 | 19 | 304 | 0.0 | 0.0 | 0.00 | 0.23 | 0.00 | 98 | 1019.3 |
| 20260831101559 | 19 | 303 | 0.0 | 0.0 | 0.00 | 0.23 | 0.00 | 98 | 1019.1 |
| 20260831100057 | 19 | 304 | 0.0 | 0.0 | 0.00 | 0.23 | 0.00 | 98 | 1018.9 |
| 20260831094553 | 19 | 303 | 0.0 | 0.0 | 0.00 | 0.23 | 0.00 | 98 | 1018.9 |
| 20260831093055 | 19 | 303 | 0.0 | 0.0 | 0.00 | 0.23 | 0.00 | 98 | 1018.7 |
| 20260831091548 | 20 | 303 | 0.0 | 0.0 | 0.00 | 0.23 | 0.00 | 98 | 1018.7 |
| 20260831090057 | 20 | 304 | 0.0 | 0.0 | 0.00 | 0.23 | 0.00 | 98 | 1018.6 |
| 20260831084556 | 20 | 304 | 0.0 | 0.0 | 0.00 | 0.23 | 0.00 | 98 | 1018.7 |
| 20260831083045 | 20 | 303 | 0.0 | 0.0 | 0.00 | 0.23 | 0.00 | 98 | 1018.7 |
| 20260831081544 | 20 | 304 | 0.0 | 0.0 | 0.00 | 0.23 | 0.00 | 98 | 1018.5 |
| 20260831080043 | 20 | 304 | 0.0 | 0.0 | 0.00 | 0.23 | 0.00 | 98 | 1018.5 |
| 20260831074542 | 20 | 304 | 0.0 | 0.0 | 0.00 | 0.23 | 0.00 | 97 | 1018.4 |
| 20260831073042 | 20 | 304 | 0.0 | 0.0 | 0.00 | 0.23 | 0.00 | 97 | 1018.5 |
| 20260831071539 | 20 | 303 | 0.0 | 0.0 | 0.00 | 0.23 | 0.00 | 97 | 1018.6 |
| 20260831070046 | 21 | 304 | 0.0 | 0.0 | 0.00 | 0.23 | 0.00 | 97 | 1018.5 |
| 20260831064538 | 21 | 303 | 0.0 | 0.0 | 0.00 | 0.23 | 0.00 | 97 | 1018.7 |
| 20260831063042 | 21 | 303 | 0.0 | 0.0 | 0.00 | 0.23 | 0.00 | 97 | 1018.9 |
| 20260831061537 | 21 | 303 | 0.0 | 0.0 | 0.00 | 0.23 | 0.00 | 97 | 1018.7 |
| 20260831060035 | 21 | 304 | 0.0 | 0.0 | 0.00 | 0.23 | 0.00 | 97 | 1018.6 |
| 20260831054534 | 21 | 304 | 0.0 | 0.0 | 0.00 | 0.23 | 0.00 | 97 | 1018.4 |
| 20260831053038 | 21 | 304 | 0.0 | 0.0 | 0.00 | 0.23 | 0.00 | 97 | 1018.5 |
| 20260831051537 | 21 | 304 | 0.0 | 0.0 | 0.00 | 0.23 | 0.00 | 97 | 1018.6 |
| 20260831050036 | 21 | 304 | 0.0 | 0.0 | 0.00 | 0.23 | 0.00 | 96 | 1018.6 |
| 20260831044530 | 21 | 304 | 0.0 | 0.0 | 0.00 | 0.23 | 0.00 | 96 | 1018.7 |
| 20260831043028 | 21 | 304 | 0.0 | 0.0 | 0.00 | 0.23 | 0.00 | 96 | 1018.6 |
| 20260831041525 | 22 | 304 | 0.0 | 0.0 | 0.00 | 0.23 | 0.00 | 95 | 1018.7 |
| 20260831040025 | 22 | 303 | 0.0 | 0.0 | 0.00 | 0.23 | 0.00 | 95 | 1018.9 |
| 20260831034522 | 22 | 304 | 0.0 | 0.0 | 0.00 | 0.23 | 0.23 | 94 | 1018.9 |
| 20260831033039 | 22 | 320 | 0.0 | 0.0 | 0.00 | 0.23 | 0.23 | 93 | 1018.9 |
| 20260831031520 | 22 | 260 | 0.0 | 11.3 | 0.00 | 0.23 | 0.23 | 93 | 1018.9 |
| 20260831030022 | 22 | 197 | 3.2 | 14.5 | 0.00 | 0.23 | 0.23 | 92 | 1018.7 |
| 20260831024520 | 23 | 180 | 8.0 | 16.1 | 0.00 | 0.23 | 0.23 | 92 | 1018.7 |
| 20260831023019 | 23 | 173 | 3.2 | 14.5 | 0.00 | 0.23 | 0.23 | 94 | 1018.9 |
| 20260831021518 | 23 | 227 | 6.4 | 11.3 | 0.00 | 0.23 | 0.23 | 95 | 1018.7 |
| 20260831020018 | 23 | 202 | 1.6 | 11.3 | 0.15 | 0.23 | 0.23 | 96 | 1018.8 |
| 20260831014519 | 23 | 234 | 0.0 | 3.2 | 0.20 | 0.23 | 0.23 | 96 | 1018.7 |
| 20260831013017 | 23 | 203 | 0.0 | 3.2 | 0.23 | 0.23 | 0.23 | 96 | 1019.0 |
| 20260831011518 | 23 | 205 | 0.0 | 1.6 | 0.23 | 0.23 | 0.23 | 95 | 1018.7 |